K9PHP Weather Reports


time (UTC)temp
C
wind
direction
speed
KPH
gust
KPH
rain 1hr
cm
rain 24hr
cm
rain mn
cm
humidity
%
barometer
mb
20260905204546 33 280 6.4 14.5 0.00 0.00 0.00 60 1007.6
20260905203021 33 295 11.3 16.1 0.00 0.00 0.00 60 1007.9
20260905201504 33 313 9.7 14.5 0.00 0.00 0.00 59 1008.1
20260905200053 33 310 8.0 17.7 0.00 0.00 0.00 61 1008.2
20260905194525 33 319 9.7 16.1 0.00 0.00 0.00 60 1008.2
20260905193006 33 270 11.3 16.1 0.00 0.00 0.00 60 1008.4
20260905191552 32 228 0.0 12.9 0.00 0.00 0.00 60 1008.7
20260905190032 32 281 3.2 14.5 0.00 0.00 0.00 58 1009.0
20260905184506 32 291 6.4 14.5 0.00 0.00 0.00 61 1009.2
20260905183040 32 247 6.4 14.5 0.00 0.00 0.00 62 1009.2
20260905181532 31 271 9.7 16.1 0.00 0.00 0.00 60 1009.4
20260905180100 31 248 12.9 22.5 0.00 0.00 0.00 63 1009.5
20260905180001 31 265 12.9 22.5 0.00 0.00 0.00 61 1009.5
20260905174535 31 269 11.3 17.7 0.00 0.00 0.00 63 1009.6
20260905173019 30 262 4.8 12.9 0.00 0.00 0.00 64 1010.0
20260905171555 30 246 9.7 16.1 0.00 0.00 0.00 60 1010.0
20260905170045 30 218 14.5 22.5 0.00 0.00 0.00 62 1010.2
20260905164517 30 221 6.4 16.1 0.00 0.00 0.00 60 1010.4
20260905163057 29 204 6.4 12.9 0.00 0.00 0.00 63 1010.6
20260905161537 28 187 6.4 16.1 0.00 0.00 0.00 63 1010.8
20260905160054 28 197 4.8 12.9 0.00 0.00 0.00 64 1010.8
20260905154531 28 267 6.4 14.5 0.00 0.00 0.00 66 1010.6
20260905153012 27 242 6.4 16.1 0.00 0.00 0.00 66 1010.8
20260905151552 27 263 3.2 16.1 0.00 0.00 0.00 67 1010.6
20260905150026 27 229 8.0 20.9 0.00 0.00 0.00 65 1010.5
20260905144505 27 181 9.7 24.1 0.00 0.00 0.00 66 1010.8
20260905143049 26 161 11.3 22.5 0.00 0.00 0.00 69 1010.8
20260905141521 26 144 16.1 24.1 0.00 0.00 0.00 69 1011.0
20260905140055 25 138 6.4 24.1 0.00 0.00 0.00 72 1011.2
20260905140001 25 161 6.4 24.1 0.00 0.00 0.00 71 1011.2
20260905134535 25 154 9.7 20.9 0.00 0.00 0.00 73 1011.2
20260905133015 24 155 9.7 20.9 0.00 0.00 0.00 74 1011.3
20260905131555 23 108 11.3 19.3 0.00 0.00 0.00 76 1011.5
20260905130029 23 169 8.0 16.1 0.00 0.00 0.00 78 1011.1
20260905124509 22 162 6.4 16.1 0.00 0.00 0.00 80 1011.1
20260905123043 22 132 6.4 14.5 0.00 0.00 0.00 82 1011.2
20260905121523 21 114 4.8 17.7 0.00 0.00 0.00 83 1011.3
20260905120002 21 119 4.8 14.5 0.00 0.00 0.00 83 1011.2
20260905114544 21 110 11.3 20.9 0.00 0.00 0.00 83 1011.0
20260905113031 21 87 11.3 19.3 0.00 0.00 0.00 83 1010.9
20260905111645 21 99 14.5 24.1 0.00 0.00 0.00 83 1010.8
20260905111501 21 107 14.5 29.0 0.00 0.00 0.00 83 1010.8
20260905110037 21 107 14.5 32.2 0.00 0.00 0.00 83 1011.0
20260905104520 22 100 25.7 49.9 0.00 0.00 0.00 86 1011.0
20260905103047 22 103 22.5 30.6 0.00 0.00 0.00 93 1010.3
20260905101539 21 155 0.0 0.0 0.00 0.00 0.00 92 1009.7
20260905100057 21 155 0.0 0.0 0.00 0.00 0.00 92 1009.5
20260905094531 21 155 0.0 0.0 0.00 0.00 0.00 92 1009.4
20260905093012 21 155 0.0 0.0 0.00 0.00 0.00 92 1009.3
20260905091559 22 155 0.0 0.0 0.00 0.00 0.00 92 1009.3
20260905090029 22 155 0.0 0.0 0.00 0.00 0.00 92 1009.4
20260905084509 22 155 0.0 0.0 0.00 0.00 0.00 92 1009.3
20260905083046 22 155 0.0 0.0 0.00 0.00 0.00 92 1009.3
20260905081526 22 155 0.0 0.0 0.00 0.00 0.00 91 1009.1
20260905080004 22 155 0.0 0.0 0.00 0.00 0.00 91 1008.7
20260905074543 22 155 0.0 0.0 0.00 0.00 0.00 91 1008.6
20260905073026 22 155 0.0 0.0 0.00 0.00 0.00 91 1008.5
20260905071603 22 155 0.0 0.0 0.00 0.00 0.00 91 1008.7
20260905071508 22 155 0.0 0.0 0.00 0.00 0.00 91 1008.6
20260905070041 22 155 0.0 0.0 0.00 0.00 0.00 90 1008.7
20260905064528 22 155 0.0 0.0 0.00 0.00 0.00 90 1008.9
20260905063103 22 155 0.0 0.0 0.00 0.00 0.00 90 1009.2
20260905061552 22 155 0.0 0.0 0.00 0.00 0.00 90 1009.4
20260905060029 22 155 0.0 0.0 0.00 0.00 0.00 89 1009.6
20260905054555 22 155 0.0 0.0 0.00 0.00 0.00 89 1009.7
20260905053036 22 155 0.0 0.0 0.00 0.00 0.00 89 1009.9
20260905051515 22 155 0.0 0.0 0.00 0.00 0.00 89 1009.9
20260905050053 22 155 0.0 0.0 0.00 0.00 0.00 88 1010.0
20260905044531 22 155 0.0 0.0 0.00 0.00 0.00 88 1010.0
20260905043011 23 155 0.0 0.0 0.00 0.00 0.00 88 1010.0
20260905041552 23 155 0.0 0.0 0.00 0.00 0.00 88 1010.1
20260905040019 23 155 0.0 0.0 0.00 0.00 0.00 87 1010.1
20260905034538 23 155 0.0 0.0 0.00 0.00 0.00 86 1010.0
20260905033018 23 155 0.0 0.0 0.00 0.00 0.00 86 1010.2
20260905031559 24 155 0.0 0.0 0.00 0.00 0.00 85 1010.2
20260905030038 24 155 0.0 0.0 0.00 0.00 0.00 85 1010.1
20260905024529 25 155 0.0 0.0 0.00 0.00 0.00 85 1010.0
20260905023053 25 155 0.0 0.0 0.00 0.00 0.00 83 1010.0
20260905021539 25 155 0.0 0.0 0.00 0.00 0.00 82 1009.9
20260905020025 25 155 0.0 1.6 0.00 0.00 0.00 83 1009.9
20260905014558 26 155 0.0 8.0 0.00 0.00 0.00 81 1009.9
20260905013041 26 155 0.0 0.0 0.00 0.00 0.00 79 1009.8
20260905011518 26 155 0.0 8.0 0.00 0.00 0.00 79 1009.6
20260905010058 27 163 0.0 0.0 0.00 0.00 0.00 77 1009.6
20260905004532 27 153 0.0 0.0 0.00 0.00 0.00 75 1009.4
20260905003014 28 146 0.0 0.0 0.00 0.00 0.00 74 1009.4
20260905001552 28 124 1.6 16.1 0.00 0.00 0.00 73 1009.4
20260905000034 29 114 11.3 16.1 0.00 0.00 0.00 73 1009.5
20260904234514 30 102 12.9 17.7 0.00 0.00 0.00 73 1009.4
20260904233053 31 107 6.4 11.3 0.00 0.00 0.00 74 1009.2
20260904231529 31 110 0.0 0.0 0.00 0.00 0.00 72 1009.1
20260904230008 31 110 4.8 14.5 0.00 0.00 0.00 70 1009.1
20260904224548 31 102 6.4 16.1 0.00 0.00 0.00 69 1009.0
20260904223027 32 102 11.3 20.9 0.00 0.00 0.00 67 1009.1
20260904221509 33 132 4.8 14.5 0.00 0.00 0.00 65 1009.0
20260904220032 34 292 0.0 8.0 0.00 0.00 0.00 61 1008.9
20260904214512 35 286 11.3 14.5 0.00 0.00 0.00 59 1008.6
20260904213048 35 267 0.0 0.0 0.00 0.00 0.00 57 1008.8
20260904211533 34 258 0.0 9.7 0.00 0.00 0.00 58 1009.0
20260904210023 34 279 4.8 12.9 0.00 0.00 0.00 59 1009.3